[[{"header":{"parameterUnit":"m.s-1","parameterCategory":1,"la1":30.2991,"la2":30.254,"lo1":-89.0895,"lo2":-89.0444,"dy":0.0017,"dx":0.0017,"nx":28,"ny":28,"refTime":"2025-11-29T09:00:00:Z","depth":0,"parameterNumber":2,"parameterNumberName":"U-component_of_WINDS"},"data":[0,0,0,0,0,0,0,0,0,0,0,0,0,0,0,0,0,0,0,0,0,0,0,0,0,0,0,0,0,0,0,0,0,0,0,0,0,0,0,0,0,0,0,0,0,0,0,0,0,0,0,0,0,0,0,0,0,0,-6.9576,-6.9577,0,-6.9652,-6.9653,-6.9654,-6.9472,-6.9466,-6.946,-6.9455,-6.9533,-6.954,-6.9547,0,0,0,0,0,0,0,0,0,0,0,0,0,-6.9273,-6.9279,-6.9576,-6.9577,-6.9578,-6.9652,-6.9653,-6.9654,-6.9473,-6.9466,-6.9459,-6.9452,-6.953,-6.9539,-6.9548,0,0,0,0,0,0,0,0,0,0,0,0,0,-6.9382,-6.9281,-6.9576,-6.9496,-6.949,-6.9652,-6.9653,-6.9654,-6.9474,-6.9465,-6.9457,-6.9449,-6.9527,-6.9538,-6.9549,-6.9792,0,0,-6.9583,-6.9588,0,0,0,0,0,0,0,0,-6.9376,-6.9394,-6.9507,-6.9502,-6.9495,-6.9543,-6.9574,-6.97,-6.9476,-6.948,-6.9454,-6.9444,-6.9543,-6.9553,-6.9586,-6.9795,-6.9799,-6.9584,-6.9591,-6.9596,-6.9599,0,0,0,0,0,0,0,-6.9369,-6.9389,-6.9606,-6.9509,-6.9502,-6.9456,-6.9462,-6.9597,-6.9559,-6.9479,-6.9466,-6.9478,-6.9538,-6.9576,-6.9586,-6.98,-6.9584,-6.9594,-6.9601,-6.9605,-7.0208,-7.0217,0,0,0,0,0,0,-6.9372,-6.9384,-6.9603,-6.9608,-6.9413,-6.9469,-6.9476,-6.9537,-6.9557,-6.9552,-6.9485,-6.9469,-6.9561,-6.9574,-6.9589,-6.987,-6.9596,-6.9606,-6.9613,-7.0199,-7.021,-7.022,0,0,0,0,0,0,-6.9366,-6.9393,-6.96,-6.9493,-6.9516,-6.9483,-6.9553,-6.9543,-6.9579,-6.9562,-6.9554,-6.953,-6.9554,-6.9573,-6.9742,-6.987,-6.9612,-6.9622,-7.0188,-7.0202,-7.0215,-7.0437,0,0,0,0,0,0,-6.9358,-6.9392,-6.9484,-6.9496,-6.9522,-6.9753,-6.9562,-6.9551,-6.9599,-6.9579,-6.9602,-6.9597,-6.9549,-6.9726,-6.9753,-6.9881,-6.963,-7.0176,-7.0194,-7.0211,-7.0418,-7.0457,-7.049,0,0,0,0,0,-6.9348,-6.9544,-6.9489,-6.9517,-6.9637,-6.9761,-6.9776,-6.9716,-6.9611,-6.9702,-6.969,-6.9597,-6.9853,-6.9745,-6.9773,-6.9907,-7.0168,-7.0189,-7.0209,-7.0402,-7.0449,-7.049,0,0,0,0,0,0,-6.9548,-6.9544,-6.9483,-6.969,-6.9727,-6.973,-6.9843,-6.9769,-6.9837,-6.9815,-6.9738,-6.9745,-6.9927,-6.9935,-6.9814,-7.0141,-6.9992,-7.002,-7.0129,-7.0174,-7.0209,-7.0201,-6.964,0,0,0,0,0,-6.9616,-6.9718,-6.9709,-6.9892,-6.9914,-6.9877,-6.9929,-6.9879,-6.9915,-6.9929,-6.993,-6.9968,-7.0056,-7.0116,-7.0197,-7.042,-7.042,-7.0526,-7.0562,-7.0592,-7.0615,-7.073,-7.0776,-7.0289,-7.0289,-7.0288,0,0,-6.9758,-6.9769,-6.9837,-6.9933,-6.9955,-7.0061,-6.9891,-7.0011,-7.0088,-6.9947,-7.0105,-7.0108,-7.0145,-7.0341,-7.0428,-7.0353,-7.075,-7.0618,-7.0642,-7.0649,-7.0756,-7.0802,-7.0843,-7.0303,-7.0301,-7.0298,0,0,-7.0069,-7.009,-7.0242,-7.0268,-7.0305,-7.0279,-7.0316,-7.033,-7.0326,-7.0484,-7.038,-7.0471,-7.0627,-7.0656,-7.0691,-7.1015,-7.0929,-7.1044,-7.123,-7.1343,-7.1381,-7.1415,-7.1526,-7.1567,-7.1068,-7.1069,-7.1069,0,-7.024,-7.0395,-7.033,-7.0456,-7.05,-7.0378,-7.0531,-7.056,-7.0623,-7.0655,-7.0571,-7.0761,-7.0778,-7.0977,-7.1056,-7.1091,-7.1128,-7.1038,-7.1381,-7.1414,-7.1445,-7.155,-7.1592,-7.1082,-7.108,-7.1079,-7.1078,0,-7.0602,-7.0712,-7.0831,-7.0892,-7.095,-7.109,-7.1044,-7.1111,-7.1057,-7.104,-7.1201,-7.1217,-7.1297,-7.1342,-7.1292,-7.1535,-7.1487,-7.1394,-7.1242,-7.1505,-7.1602,-7.1642,-7.1101,-7.1096,-7.1092,-7.1089,0,0,-7.1038,-7.1062,-7.1106,-7.1131,-7.1163,-7.1246,-7.1381,-7.1458,-7.1515,-7.1563,-7.1671,-7.1806,-7.1719,-7.1759,-7.1712,-7.1812,-7.2062,-7.1706,-7.1705,-7.1767,-7.2326,-7.2392,-7.244,-7.2008,-7.2015,-7.2021,-7.2321,0,-7.1342,-7.157,-7.1515,-7.1741,-7.1839,-7.1726,-7.1842,-7.1874,-7.1862,-7.1943,-7.193,-7.2024,-7.1905,-7.1928,-7.2023,-7.2012,-7.2172,-7.199,-7.2105,-7.211,-7.2094,-7.2491,-7.2562,-7.2844,-7.2359,-7.2366,-7.2371,0,-7.1726,-7.1786,-7.2022,-7.2035,-7.2075,-7.218,-7.2246,-7.2327,-7.236,-7.2344,-7.239,-7.2322,-7.2453,-7.2304,-7.2482,-7.2359,-7.2404,-7.2406,-7.2415,-7.242,-7.2253,-7.2502,-7.2933,-7.2974,-7.2431,-7.2426,-7.2421,0,-7.2014,-7.2156,-7.2313,-7.234,-7.2361,-7.2437,-7.245,-7.2475,-7.2525,-7.2584,-7.2614,-7.2689,-7.2729,-7.2787,-7.2741,-7.2637,-7.2925,-7.2773,-7.2913,-7.2914,-7.2975,-7.2971,-7.3414,-7.3013,-7.3012,-7.3011,-7.301,0,-7.2356,-7.2503,-7.2443,-7.254,-7.2701,-7.2637,-7.2798,-7.2798,-7.2822,-7.2915,-7.2824,-7.2914,-7.285,-7.2935,-7.29,-7.3051,-7.3071,-7.306,-7.3048,-7.3065,-7.3066,-7.3089,-7.3067,-7.3022,-7.302,-7.3018,-7.3016,0,-7.2703,-7.267,-7.2833,-7.2841,-7.2846,-7.2964,-7.2969,-7.3059,-7.304,-7.316,-7.3185,-7.3156,-7.3251,-7.3212,-7.3313,-7.329,-7.3481,-7.3446,-7.3469,-7.3458,-7.3599,-7.3584,-7.4069,-7.4128,-7.3693,-7.3698,-7.3701,0,-7.2921,-7.3031,-7.305,-7.3106,-7.3125,-7.3217,-7.3267,-7.321,-7.3265,-7.3312,-7.3395,-7.3482,-7.3548,-7.3705,-7.3693,-7.3769,-7.3732,-7.3897,-7.3742,-7.3756,-7.3729,-7.3721,-7.3729,-7.3926,-7.3931,-7.3935,-7.3939,0,-7.3309,-7.3287,-7.3362,-7.3433,-7.3496,-7.3548,-7.3593,-7.3645,-7.3589,-7.3656,-7.3752,-7.3803,-7.3905,-7.3992,-7.406,-7.4071,-7.3996,-7.3988,-7.4023,-7.404,-7.4046,-7.404,-7.3548,-7.3976,-7.3972,-7.3969,-7.3967,-7.3966,-7.3595,-7.3686,-7.3713,-7.38,-7.3828,-7.3872,-7.3955,-7.3947,-7.4026,-7.4103,-7.4066,-7.4176,-7.4206,-7.4288,-7.4311,-7.4396,-7.4331,-7.4384,-7.4397,-7.4409,-7.4425,-7.4038,-7.4409,-7.4408,-7.4407,-7.4406,-7.4405,0,-7.3973,-7.3985,-7.4067,-7.4131,-7.42,-7.4124,-7.417,-7.4231,-7.4329,-7.4364,-7.4431,-7.454,-7.4623,-7.4619,-7.4695,-7.4764,-7.4731,-7.4786,-7.4777,-7.4781,-7.4481,-7.444,-7.4811,-7.4811,-7.4811,-7.4811,-7.4811,-7.481,-7.4178,-7.4328,-7.4309,-7.4471,-7.4482,-7.4588,-7.462,-7.466,-7.4687,-7.4812,-7.4881,-7.4877,-7.4896,-7.4973,-7.5046,-7.5042,-7.5073,-7.514,-7.5123,-7.4843,-7.4802,-7.4764,-7.4724,-7.5149,-7.5149,-7.5414,-7.5417,-7.5419]},{"header":{"parameterUnit":"m.s-1","parameterCategory":1,"la1":30.2991,"la2":30.254,"lo1":-89.0895,"lo2":-89.0444,"dy":0.0017,"dx":0.0017,"nx":28,"ny":28,"refTime":"2025-11-29T09:00:00:Z","depth":0,"parameterNumber":3,"parameterNumberName":"V-component_of_WINDS"},"data":[0,0,0,0,0,0,0,0,0,0,0,0,0,0,0,0,0,0,0,0,0,0,0,0,0,0,0,0,0,0,0,0,0,0,0,0,0,0,0,0,0,0,0,0,0,0,0,0,0,0,0,0,0,0,0,0,0,0,0.5092,0.5092,0,0.506,0.506,0.5059,0.4934,0.4931,0.4928,0.4925,0.4896,0.4898,0.49,0,0,0,0,0,0,0,0,0,0,0,0,0,0.5048,0.5049,0.5092,0.5092,0.5091,0.506,0.506,0.5059,0.4934,0.4931,0.4927,0.4924,0.4895,0.4898,0.49,0,0,0,0,0,0,0,0,0,0,0,0,0,0.5047,0.505,0.5092,0.5025,0.5019,0.506,0.506,0.5059,0.4935,0.4931,0.4926,0.4922,0.4895,0.4897,0.49,0.5005,0,0,0.4909,0.491,0,0,0,0,0,0,0,0,0.5047,0.5049,0.5035,0.503,0.5023,0.4996,0.5033,0.5041,0.4936,0.4967,0.4925,0.492,0.4933,0.4933,0.4936,0.5003,0.5002,0.4909,0.4911,0.4912,0.4913,0,0,0,0,0,0,0,0.5047,0.5049,0.5079,0.5035,0.5028,0.4998,0.4993,0.5034,0.4975,0.4964,0.4955,0.4952,0.4929,0.4934,0.4935,0.5002,0.4909,0.4912,0.4913,0.4915,0.5155,0.5159,0,0,0,0,0,0,0.5056,0.505,0.508,0.5078,0.5024,0.5002,0.4996,0.5009,0.4974,0.4964,0.4956,0.4947,0.4931,0.4931,0.4933,0.5055,0.4912,0.4915,0.4917,0.515,0.5156,0.5161,0,0,0,0,0,0,0.5056,0.506,0.5082,0.5062,0.5062,0.5007,0.5023,0.5011,0.5016,0.4968,0.4957,0.4972,0.4928,0.4929,0.4988,0.5052,0.4916,0.4919,0.5145,0.5152,0.5158,0.5298,0,0,0,0,0,0,0.5055,0.5061,0.5099,0.5063,0.5064,0.5137,0.5027,0.5013,0.5021,0.5008,0.498,0.4971,0.4924,0.4984,0.4991,0.5053,0.4921,0.5139,0.5148,0.5156,0.5288,0.5309,0.5328,0,0,0,0,0,0.5054,0.514,0.5102,0.5106,0.511,0.5141,0.5141,0.5084,0.5026,0.5065,0.5035,0.4972,0.5043,0.4992,0.4998,0.5062,0.5135,0.5145,0.5156,0.5279,0.5305,0.5327,0,0,0,0,0,0,0.5186,0.5134,0.5091,0.5168,0.516,0.5119,0.5167,0.5113,0.5122,0.511,0.5039,0.5034,0.5104,0.5088,0.5032,0.5162,0.5079,0.5091,0.517,0.5195,0.5214,0.5217,0.4923,0,0,0,0,0,0.5224,0.5252,0.5205,0.5278,0.5276,0.5222,0.5233,0.519,0.5179,0.5175,0.5148,0.5141,0.5162,0.5177,0.5193,0.5284,0.5277,0.5332,0.5351,0.5368,0.538,0.5429,0.5453,0.5195,0.5195,0.5195,0,0,0.5303,0.5278,0.53,0.5304,0.5292,0.5324,0.522,0.5257,0.5281,0.5181,0.5235,0.5216,0.5203,0.5279,0.5311,0.5268,0.5449,0.5381,0.5395,0.5398,0.5442,0.5467,0.5488,0.5203,0.5201,0.52,0,0,0.5464,0.5447,0.5506,0.5496,0.5479,0.5443,0.5458,0.5425,0.5409,0.5462,0.5388,0.5415,0.5451,0.5445,0.5447,0.5606,0.555,0.5613,0.5718,0.5767,0.5787,0.5805,0.5863,0.5885,0.5625,0.5626,0.5626,0,0.5564,0.5608,0.5543,0.5586,0.5591,0.55,0.5561,0.5555,0.5545,0.5551,0.5502,0.5547,0.5532,0.5606,0.5645,0.5649,0.5664,0.5617,0.5789,0.5806,0.5822,0.5877,0.5899,0.5634,0.5633,0.5632,0.5631,0,0.5734,0.5765,0.5815,0.5807,0.5817,0.5869,0.5813,0.5831,0.5787,0.5757,0.5813,0.5791,0.5802,0.5816,0.5774,0.5885,0.5859,0.5801,0.5716,0.5855,0.5906,0.5927,0.5645,0.5642,0.564,0.5638,0,0,0.5978,0.5933,0.5953,0.5949,0.5924,0.5947,0.5995,0.6005,0.6023,0.6019,0.6059,0.6092,0.6038,0.604,0.5996,0.6038,0.6168,0.5975,0.5973,0.6013,0.6292,0.6338,0.6363,0.613,0.6133,0.6136,0.6293,0,0.6132,0.6211,0.6154,0.6243,0.6273,0.6187,0.6229,0.6219,0.6192,0.6214,0.6183,0.6209,0.6135,0.6136,0.6174,0.6144,0.6223,0.6132,0.6168,0.617,0.6176,0.6389,0.6437,0.6587,0.6313,0.6316,0.6318,0,0.6323,0.6327,0.6419,0.6389,0.6399,0.6438,0.6443,0.6464,0.6451,0.6429,0.6432,0.6377,0.6423,0.6338,0.6402,0.6341,0.6352,0.634,0.6345,0.6348,0.6254,0.64,0.6633,0.6656,0.6349,0.6346,0.6344,0,0.6495,0.6523,0.6582,0.6581,0.6546,0.6576,0.6563,0.6546,0.6556,0.656,0.6567,0.6577,0.6583,0.6593,0.6543,0.6486,0.6615,0.6525,0.6599,0.66,0.6631,0.6631,0.6872,0.6636,0.6635,0.6635,0.6634,0,0.6675,0.6735,0.6659,0.6696,0.6761,0.6695,0.6762,0.674,0.6726,0.6758,0.6684,0.6716,0.6647,0.6672,0.6633,0.6693,0.6696,0.668,0.667,0.6688,0.6691,0.6696,0.6685,0.6641,0.6639,0.6638,0.6637,0,0.6878,0.6829,0.6888,0.6851,0.6843,0.6893,0.6861,0.6894,0.6861,0.6903,0.6909,0.6859,0.6884,0.6835,0.6854,0.6828,0.6913,0.6885,0.6918,0.691,0.6988,0.6982,0.7243,0.7274,0.7016,0.7019,0.7021,0,0.6997,0.7041,0.7008,0.7024,0.7015,0.7041,0.7051,0.6988,0.7002,0.6991,0.7026,0.7045,0.7057,0.7103,0.7069,0.7084,0.7057,0.7147,0.7059,0.7076,0.7061,0.706,0.7065,0.7166,0.7169,0.7172,0.7174,0,0.7214,0.7188,0.7204,0.7213,0.7226,0.723,0.7228,0.7245,0.7179,0.7198,0.7223,0.7233,0.7252,0.7273,0.728,0.7267,0.7212,0.7202,0.722,0.724,0.7258,0.7252,0.697,0.7197,0.7194,0.7193,0.7191,0.719,0.738,0.7416,0.7399,0.742,0.7412,0.7412,0.7442,0.7413,0.7432,0.7443,0.7405,0.7439,0.7426,0.7429,0.7423,0.745,0.741,0.7436,0.7443,0.7451,0.7464,0.7252,0.7451,0.745,0.7449,0.7449,0.7448,0,0.7595,0.758,0.76,0.76,0.7617,0.756,0.7555,0.7574,0.7604,0.7596,0.761,0.764,0.766,0.7627,0.7642,0.767,0.7645,0.7676,0.7675,0.7673,0.7498,0.7482,0.7697,0.7697,0.7697,0.7696,0.7696,0.7696,0.7709,0.7768,0.774,0.7794,0.7777,0.781,0.7813,0.7813,0.7807,0.7843,0.7859,0.7837,0.782,0.7833,0.7849,0.7839,0.7849,0.789,0.7872,0.7709,0.7685,0.7662,0.7647,0.7893,0.7893,0.8045,0.8046,0.8047]}]]